Regional Weather Roundup
Issued by NWS

Home | Current Version | Previous Version | Graphics & Text | Print | Product List | Glossary On
Versions: 1 2 3 4 5 6 7 8 9 10 11 12 13 14 15 16 17 18 19 20 21 22 23 24 25 26 27 28 29 30 31 32 33 34 35 36 37 38 39 40 41 42 43 44 45 46 47 48 49 50
000
ASUS43 KIND 262309
RWRIN

WEATHER ROUNDUP FOR INDIANA
NATIONAL WEATHER SERVICE INDIANAPOLIS IN
600 PM EST SUN FEB 26 2017

NOTE: "FAIR" INDICATES FEW OR NO CLOUDS BELOW 12,000 FEET WITH NO
SIGNIFICANT WEATHER AND/OR OBSTRUCTIONS TO VISIBILITY.

* - STATION DOES NOT REPORT WEATHER SUCH AS PRECIPITATION OR FOG.

+ - STATION NOT QUALITY CONTROLLED BY THE NATIONAL WEATHER SERVICE.
    USE DATA WITH CAUTION...ESPECIALLY DEWPOINT AND RELATIVE
    HUMIDITY OBSERVATIONS.

INZ001>003-010>013-019-020-270000-
NORTHWEST INDIANA

CITY           SKY/WX    TMP DP  RH WIND       PRES   REMARKS
GARY /AIRPORT/ PTCLDY    48  12  23 SW17G32   29.98R
KNOX *+        CLOUDY    46 -13   8 SW16G22   30.00S
LA PORTE +     MOCLDY    45  21  37 SW17G24   29.99R
MICHIGAN CITY+ PTCLDY    45  21  39 SW15G21   29.99R
MONTICELLO +   CLEAR     44  18  35 SW17G24   30.05R
RENSSELAER +   CLEAR     45  18  33 SW16G24   30.03R
VALPARAISO     CLOUDY    48  20  32 SW17      29.99R

$$

LMZ046-743>745-270000-
SOUTHERN LAKE MICHIGAN

STATION/POSITION TIME  TEMP    WIND        PRES    WAVE
                       AIR SEA DIR/SP/G            HT
                 (UTC) (F)     (DEG/KT/KT) (MB)    (FT)
BURNS HARBOR     2240   47     230/ 19/ 27 1015.6R
MICHIGAN CITY    2240   46     200/ 21/ 25   N/A

$$

INZ004-005-014>016-021>024-270000-
NORTH CENTRAL INDIANA

CITY           SKY/WX    TMP DP  RH WIND       PRES   REMARKS
ELKHART        CLEAR     45  19  36 SW9       29.99R
GOSHEN         CLOUDY    43  20  39 SW16      30.00R
LOGANSPORT +   CLEAR     41  23  48 SW14      30.07R
PERU/GRISSOM   CLEAR     42  19  39 SW16      30.05R
ROCHESTER +    PTCLDY    45  19  36 S15       30.04R
SOUTH BEND     CLOUDY    44  20  38 SW13      29.99R
WARSAW +       PTCLDY    45  19  36 SW10G17   30.03R

$$

INZ006>009-017-018-025>027-270000-
NORTHEAST INDIANA

CITY           SKY/WX    TMP DP  RH WIND       PRES   REMARKS
ANGOLA *+      CLEAR     41  28  60 SW14      30.01R
AUBURN +       CLEAR     43  19  39 SW13G23   30.05R
FORT WAYNE     PTCLDY    42  21  43 SW20G30   30.06R
HUNTINGTON +   CLEAR     42  15  33 SW13G23   30.06R
KENDALLVILLE + PTCLDY    41  21  45 SW16G23   30.02R

$$

INZ028-029-035-036-043>045-051>053-270000-
WEST CENTRAL INDIANA

CITY           SKY/WX    TMP DP  RH WIND       PRES   REMARKS
LAFAYETTE      PTCLDY    42  20  41 SW10      30.07R
TERRE HAUTE    CLOUDY    46  17  31 SW9       30.11R

$$

INZ030>032-037>040-046>048-054>057-064-065-270000-
CENTRAL INDIANA

CITY           SKY/WX    TMP DP  RH WIND       PRES   REMARKS
CP ATTERBURY + CLOUDY    45  12  26 S7        30.13R
COLUMBUS       MOCLDY    46  16  29 S12       30.13S
FISHERS *+     PTCLDY    43  21  42 SW8G17    30.10R
FRANKFORT +    PTCLDY    43  24  47 SW13      30.09R
GREENWOOD *+   CLOUDY    46  15  29 SW7       30.11R
INDIANAPOLIS   CLOUDY    44  15  31 SW17      30.11R
-EAGLE CREEK   CLOUDY    45  15  30 SW10G21   30.09S
KOKOMO +       CLEAR     42  21  43 SW17      30.08R
MARION +       CLEAR     41  22  46 SW12      30.09R
MT COMFORT *+  PTCLDY    43  14  31 SW10      30.10S
SHELBYVILLE    CLOUDY    46  14  27 SW10      30.11R
ZIONSVILLE +   MOCLDY    41  21  45 SW13      30.09S

$$

INZ033-034-041-042-049-050-058-059-270000-
EAST CENTRAL INDIANA

CITY           SKY/WX    TMP DP  RH WIND       PRES   REMARKS
MUNCIE         PTCLDY    44  13  28 SW15G21   30.08R

$$

INZ060-061-067>069-081>083-085>088-270000-
SOUTHWEST INDIANA

CITY           SKY/WX    TMP DP  RH WIND       PRES   REMARKS
EVANSVILLE     CLOUDY    50  16  25 SW6       30.15R
HUNTINGBURG *+ CLOUDY    48  17  29 SW9       30.15R
WASHINGTON +   MOCLDY    47  12  24 SW10      30.13S

$$

INZ062-063-066-070>080-084-089>092-270000-
SOUTH CENTRAL AND SOUTHEAST INDIANA

CITY           SKY/WX    TMP DP  RH WIND       PRES   REMARKS
BEDFORD +      CLOUDY    48   9  20 S6        30.13R
BLOOMINGTON    CLOUDY    46  13  26 SW12      30.12R
MADISON *+     PTCLDY    45  12  26 S10       30.17R
NORTH VERNON + CLOUDY    46  14  27 SW14      30.14R
SEYMOUR +      MOCLDY    48  21  34 S7        30.14R

$$





USA.gov is the U.S. government's official web portal to all federal, state and local government web resources and services.